Date,TemperatureHighF,TemperatureAvgF,TemperatureLowF,DewpointHighF,DewpointAvgF,DewpointLowF,HumidityHigh,HumidityAvg,HumidityLow,PressureMaxIn,PressureMinIn,WindSpeedMaxMPH,WindSpeedAvgMPH,GustSpeedMaxMPH,PrecipitationSumIn
2013-8-1,76,67,56,67,62,55,96,84,60,29.73,29.58,19,2,22,0.01
2013-8-2,75,64,53,64,58,52,99,82,60,29.72,29.66,19,3,20,0.03
2013-8-3,75,66,54,63,59,52,98,80,51,29.77,29.64,16,1,19,0.00
2013-8-4,72,60,50,59,54,49,98,82,58,29.93,29.76,15,2,19,0.00
2013-8-5,72,59,48,59,52,47,98,81,49,30.00,29.87,8,0,12,0.00
2013-8-6,80,64,48,63,56,48,98,78,46,29.90,29.77,12,0,16,0.00
2013-8-7,81,68,57,71,63,56,99,87,67,29.79,29.64,13,1,15,0.04
2013-8-8,81,71,61,74,68,60,99,92,77,29.74,29.64,9,0,9,0.00
2013-8-9,78,69,55,69,65,54,99,90,61,29.77,29.59,11,1,13,0.08
2013-8-10,76,63,52,62,55,51,99,79,48,29.95,29.77,14,1,15,0.00
2013-8-11,79,63,51,62,55,50,98,79,48,29.99,29.85,11,1,12,0.00
2013-8-12,75,62,52,65,59,51,99,92,65,29.90,29.67,11,0,12,0.31
2013-8-13,68,62,49,65,58,46,99,88,65,29.75,29.55,20,2,20,1.83
2013-8-14,67,55,47,56,50,45,100,84,57,30.02,29.75,14,1,15,0.02
2013-8-15,70,56,45,59,51,44,99,85,60,30.09,29.97,12,1,13,0.00
2013-8-16,76,60,49,61,52,48,99,81,43,30.08,30.00,9,0,9,0.01
2013-8-17,77,61,48,64,55,47,99,83,52,30.17,30.05,14,0,14,0.00
2013-8-18,75,63,53,64,59,52,100,86,62,30.10,29.94,12,0,16,0.00
2013-8-19,78,66,56,68,62,55,98,88,68,29.96,29.82,10,0,10,0.00
2013-8-20,82,65,53,68,59,52,99,84,53,30.01,29.89,13,1,13,0.01
2013-8-21,86,66,54,70,55,-93,99,85,48,30.04,29.88,11,0,13,0.00
2013-8-22,81,69,58,72,59,-91,100,87,68,29.93,29.73,16,3,20,0.01
2013-8-23,80,67,52,65,45,-91,99,78,44,30.09,29.80,12,1,15,0.00
2013-8-24,80,60,48,60,52,-92,99,79,35,30.25,30.09,7,0,8,0.01
2013-8-25,82,63,48,64,55,47,100,80,45,30.25,30.03,13,1,14,0.00
2013-8-26,84,69,56,69,63,55,98,84,55,30.07,29.73,20,3,23,0.27
2013-8-27,86,69,-39,76,67,-43,99,92,66,29.74,29.56,13,1,18,0.04
2013-8-28,82,72,65,74,62,-91,99,92,72,29.73,29.55,9,0,12,0.07
2013-8-29,86,72,63,72,52,-92,99,86,55,29.98,29.73,8,0,8,0.01
2013-8-30,84,72,65,72,0,-94,98,87,59,30.34,29.88,16,2,19,0.00
2013-8-31,82,73,68,74,38,-91,98,89,72,30.12,29.71,13,1,13,0.01